Regional Weather Roundup
Issued by NWS Portland, ME

Current Version | Previous Version | Text Only | Print | Product List | Glossary On
Versions: 1 2 3 4 5 6 7 8 9 10 11 12 13 14 15 16 17 18 19 20 21 22 23 24 25 26 27 28 29 30 31 32 33 34 35 36 37 38 39 40 41 42 43 44 45 46 47 48 49 50
000 ASUS41 KGYX 010705 RWRGYX WEATHER ROUNDUP FOR MAINE AND NEW HAMPSHIRE NATIONAL WEATHER SERVICE GRAY ME 300 AM EDT MON MAY 01 2017 MEZ002-005-006-010-012-015-018-020-021-024-026-027-029-010800- MAINE CITY SKY/WX TMP DP RH WIND PRES REMARKS PORTLAND CLOUDY 43 38 82 S5 30.14F SANFORD CLOUDY 42 41 96 S3 30.13F BAR HARBOR CLOUDY 43 38 82 SW5 30.18 WISCASSET CLOUDY 45 38 76 S3 30.16S ROCKLAND CLOUDY 43 36 76 SW6 30.17R FRYEBURG CLOUDY 44 34 67 SW5 30.12F LEWISTONAUBURN CLOUDY 43 36 76 S7 30.13F AUGUSTA CLOUDY 43 35 73 VRB5 30.13F BANGOR LGT RAIN 44 39 82 SE5 30.15F GREENVILLE N/A 39 37 92 E5 30.10R MILLINOCKET LGT RAIN 43 42 97 CALM 30.17R HOULTON CLOUDY 42 36 79 CALM 30.17R PRESQUE ISLE CLOUDY 43 31 62 S6 30.19R FRENCHVILLE CLOUDY 41 17 38 E3 30.16R CARIBOU CLOUDY 43 28 55 SW5 30.17R $$ NHZ002-005-008-009-011-012-014-010800- NEW HAMPSHIRE CITY SKY/WX TMP DP RH WIND PRES REMARKS PORTSMOUTH CLOUDY 46 38 76 S5 30.12F ROCHESTER CLOUDY 43 40 89 S3 30.12F NASHUA CLOUDY 47 39 74 VRB5 N/A MANCHESTER CLOUDY 47 36 65 S5 30.12F CONCORD CLOUDY 46 36 68 S5 30.13F LACONIA CLOUDY 44 34 67 CALM 30.13F PLYMOUTH CLOUDY 44 38 79 NE3 30.12F BERLIN LGT RAIN 43 37 79 SE5 30.02F WHITEFIELD CLOUDY 48 37 65 S7G16 30.00F JAFFREY CLOUDY 45 39 79 S5 30.12F KEENE CLOUDY 47 39 74 S5 30.11F LEBANON CLOUDY 48 40 73 S10 30.06F MT WASHINGTON DRZL/FOG 41 41 100 W52G60 N/A VSB 0 $$ VTZ005-007-008-010800- VERMONT CITY SKY/WX TMP DP RH WIND PRES REMARKS ST JOHNSBURY N/A 46 39 76 MISG 30.00F MONTPELIER CLOUDY 44 42 93 S10G20 30.03F BURLINGTON CLOUDY 50 41 71 S10 29.95F $$ MAZ007-012-024-CTZ003-RIZ002-NYZ038-NYZ072-010800- SOUTHERN NEW ENGLAND AND NY CITY SKY/WX TMP DP RH WIND PRES REMARKS BOSTON CLOUDY 47 38 71 S12 30.15F WORCESTER CLOUDY 44 35 70 S7 30.11F NANTUCKET CLOUDY 45 38 76 SE17 30.16F PROVIDENCE CLOUDY 48 43 82 SE9 30.15F HARTFORD CLOUDY 48 38 68 S12 30.12F ALBANY CLOUDY 51 38 60 S17G33 30.02F NEW YORK CITY CLOUDY 51 48 89 NE10 30.09F FOG $$ ANZ081-ANZ082-ANZ150-NHZ014-MEZ023>029-010800- COASTAL MARINE OBSERVATIONS STATION/POSITION TIME TEMP WIND PRES WAVE AIR SEA DIR/SP/G HT/PER (UTC) (F) (DEG/KT/KT) (MB) (FT/S) MOUNT DESERT ROC 0700 41 1021.9R MATINICUS ROCK 0600 41 210/ 14/ 14 1021.2F ISLE OF SHOALS 0600 45 170/ 11/ 12 1021.5F JEFFREYS LEDGE 0606 45 N/A 2/ 7 CASHES LEDGE BUO 0550 43 44 1022.3 2/ 7 GEORGES BANK BUO 0550 41 41 1024.0 3/ 8 $$ .............KEY.............. WCI - WIND CHILL TC - TEMPERATURE IN CELSIUS VSB - VISIBILITY IN MILES HX - HEAT INDEX FAIR- INDICATES FEW OR NO CLOUDS BELOW 12,000 FT, WITH NO SIGNIFICANT WEATHER AND/OR OBSTRUCTIONS TO VISIBILITY.

USA.gov is the U.S. government's official web portal to all federal, state and local government web resources and services.